Temperature
19 19 19 19 19 19 19 19 19 19 19 19 19 19 19 19 19 19 19 19 19 19 19 18 18 18 18 18 18 18 18 18 18 18 18 18 18 18 18 18 18 18 18
20 19 19 19 19 19 19 19 19 19 19 19 19 19 19 19 19 19 19 19 19 19 19 18 18 18 18 18 18 18 18 18 18 18 18 18 18 18 18 18 18 18 18
20 19 19 19 19 19 19 19 19 19 19 19 19 19 19 19 19 19 19 19 19 19 19 18 18 18 18 18 18 18 18 18 18 18 18 18 18 18 18 18 18 18 18
20 20 19 19 19 19 19 19 19 19 19 19 19 19 19 19 19 19 19 19 19 19 18 18 18 18 18 18 18 18 18 18 18 18 18 18 18 18 18 18 18 18 18
20 20 20 19 19 19 19 19 19 19 19 19 19 19 19 19 19 19 19 19 19 18 19 18 18 18 18 18 18 18 18 18 18 18 18 18 18 18 18 18 18 18 18
20 20 20 19 19 19 19 19 19 19 19 19 19 19 19 19 19 19 19 19 19 19 19 18 18 18 18 18 18 18 18 18 18 18 18 18 18 18 18 18 18 18 18
20 20 20 20 19 19 19 19 19 19 19 19 19 19 19 19 19 19 19 19 19 19 19 19 18 18 18 18 18 18 18 18 18 18 18 18 18 18 18 18 18 18 17
20 20 20 20 20 20 20 19 19 19 19 19 19 19 19 19 19 19 19 19 19 19 19 19 18 18 18 18 18 18 18 18 18 18 18 18 18 18 18 18 18 17 17
20 20 20 20 20 20 19 19 19 19 19 19 19 19 19 19 19 19 19 19 19 19 19 19 18 18 18 18 18 18 18 18 18 18 18 18 18 18 18 18 18 17 17
20 20 20 20 20 19 19 19 19 19 19 19 19 19 19 19 19 19 19 19 19 19 19 19 19 19 18 18 18 18 18 18 18 18 18 18 18 18 18 18 18 17 17
20 20 20 20 20 19 19 19 19 19 19 19 19 19 19 19 19 19 19 19 19 19 19 19 19 19 18 18 18 18 18 18 18 18 18 18 18 18 18 18 18 18 17
20 20 20 20 20 20 19 19 19 19 19 19 19 19 19 19 19 18 19 19 19 19 19 19 19 18 18 18 18 18 18 18 18 18 18 18 18 18 18 18 18 18 17
20 20 20 20 20 20 19 19 19 19 19 19 19 19 19 19 18 18 18 18 19 19 19 19 19 19 19 19 19 18 18 18 18 18 18 18 18 18 18 18 18 18 17
20 20 20 20 20 20 20 19 19 19 19 19 19 19 19 19 19 19 19 19 19 19 19 19 19 19 19 19 19 19 19 18 18 18 18 18 18 18 18 18 18 18 17
20 20 20 20 20 20 20 19 19 19 19 19 19 19 19 19 19 19 19 19 19 19 19 19 19 19 19 18 18 19 19 18 18 18 18 18 18 18 18 18 18 18 17
21 20 20 20 20 20 20 20 19 19 19 19 19 19 19 19 19 19 19 19 19 19 19 19 18 19 19 18 18 18 18 18 18 18 18 18 18 18 18 17 17 17 17
21 21 20 20 20 20 20 20 19 19 19 19 19 19 19 19 19 19 19 18 18 18 18 18 18 19 18 18 18 18 18 18 18 18 18 18 18 18 18 17 17 17 17
21 21 21 20 20 20 20 20 19 19 19 19 19 19 19 19 19 19 19 19 19 18 19 19 19 18 18 18 18 18 18 18 18 18 18 18 18 18 18 17 17 17 17
21 21 21 21 20 20 20 20 20 19 19 19 19 19 19 19 19 19 19 19 19 19 18 18 18 18 18 18 18 18 18 18 18 18 18 18 18 18 18 17 17 17 17
22 21 21 21 20 20 20 20 20 19 19 19 19 19 19 19 19 19 19 19 19 19 19 19 18 18 18 18 18 18 18 18 18 18 18 18 18 18 18 17 17 17 17
22 21 21 21 20 20 20 20 20 19 19 19 19 19 19 19 19 19 19 19 19 19 19 19 19 19 18 18 18 18 18 18 18 18 18 18 18 18 18 18 17 17 17
22 22 21 21 21 20 20 20 20 20 19 19 19 19 19 19 19 19 19 19 19 19 19 19 19 19 19 18 18 18 18 18 19 18 18 18 18 18 18 18 18 18 17
22 22 21 21 21 21 20 20 20 19 19 19 19 19 19 19 19 19 19 19 19 19 19 19 19 19 19 19 19 18 18 18 18 18 18 18 18 18 18 18 18 18 17
22 22 22 21 21 21 20 20 20 20 19 19 19 19 19 19 19 19 19 19 19 19 19 19 19 19 19 19 19 19 19 18 18 18 18 18 18 18 18 18 18 17 17
23 22 22 21 21 21 20 20 20 20 20 19 19 19 19 19 19 19 19 19 19 19 19 19 19 19 19 19 19 19 19 19 18 18 18 18 18 18 18 18 18 17 17
23 22 22 22 21 21 21 20 20 20 20 20 19 19 19 19 19 19 19 19 19 19 19 19 19 19 19 19 19 19 19 18 18 18 18 18 18 18 18 18 18 17 17
Wind_Speed
1 2 8 10 12 14 15 15 15 15 15 15 16 16 17 18 18 18 19 20 20 21 22 22 23 22 22 22 22 22 21 20 19 19 19 18 18 17 17 17 16 15 17
4 5 10 11 13 14 15 15 15 15 15 16 16 16 17 17 18 18 20 20 20 21 22 23 23 22 22 22 22 21 20 19 18 18 17 17 17 16 16 16 15 14 16
5 6 10 13 13 14 15 15 15 15 15 15 16 16 17 17 18 19 20 21 21 22 23 23 22 22 22 21 21 20 19 18 17 17 15 13 14 15 15 16 16 16 15
5 7 11 14 14 15 15 15 15 15 15 16 16 16 16 17 18 19 20 20 21 22 22 22 21 21 21 20 20 19 18 17 16 15 12 11 12 14 15 15 15 15 14
5 8 13 16 15 15 15 15 15 16 16 16 16 16 16 17 18 18 19 19 20 21 21 20 20 20 19 19 18 17 16 15 15 13 11 11 11 14 14 14 14 14 13
6 9 14 16 15 15 15 15 15 16 16 16 16 16 17 17 18 19 19 19 20 20 20 19 18 18 18 17 16 15 14 14 13 12 11 11 11 13 13 13 13 13 13
7 9 13 16 15 15 15 15 15 16 16 16 17 16 17 17 17 18 18 18 18 18 18 17 16 16 16 15 14 13 12 12 11 10 10 10 11 13 13 12 12 12 12
9 8 12 15 15 15 15 15 15 15 15 16 16 17 17 16 16 17 17 17 17 16 16 15 14 14 13 13 12 10 11 10 10 9 9 10 12 12 12 11 11 11 11
8 8 8 10 12 14 15 14 14 14 15 15 15 15 15 15 15 15 15 15 15 15 14 13 13 12 11 10 10 9 9 10 9 9 10 10 12 13 12 11 11 11 11
7 7 6 7 8 9 11 13 14 13 13 14 14 14 14 14 13 13 13 13 13 13 12 12 11 10 9 8 8 9 10 9 8 8 9 10 13 13 12 11 11 10 10
7 5 5 6 6 8 9 11 11 12 11 11 11 12 11 8 9 9 10 11 12 12 11 10 10 9 7 6 7 8 8 7 7 7 8 11 13 13 12 11 11 10 10
8 6 5 5 6 7 7 8 7 7 8 7 6 7 7 7 7 8 9 10 10 10 9 8 8 7 5 4 4 5 5 7 7 7 9 12 13 13 12 12 11 11 10
9 9 7 6 6 6 4 6 5 5 5 5 6 7 6 5 5 5 5 5 6 6 5 5 4 3 3 3 4 5 7 6 6 7 8 12 12 13 12 12 11 10 10
8 8 8 7 5 5 5 5 4 4 4 4 5 7 6 4 3 3 3 3 3 3 3 3 2 2 2 4 4 5 6 6 6 7 9 12 13 13 13 12 11 10 10
8 7 8 7 7 5 4 4 5 4 4 5 6 7 7 4 4 4 3 3 3 3 3 3 3 2 2 3 4 5 5 6 7 8 9 12 12 13 13 12 11 11 11
8 8 7 8 7 6 4 4 4 5 5 5 5 7 8 6 5 4 3 2 2 3 3 3 3 3 2 2 3 4 5 6 7 8 9 11 12 13 13 12 12 11 11
9 8 8 8 6 6 5 5 5 5 6 5 5 7 8 7 6 4 3 2 2 3 4 3 3 2 2 2 2 2 3 5 6 8 8 9 10 12 13 12 12 12 11
10 9 8 8 7 5 5 4 3 4 5 4 5 6 7 8 7 5 3 2 2 3 3 2 2 2 2 2 2 2 2 3 5 7 8 9 9 10 12 13 12 12 12
11 10 8 7 7 5 5 4 3 3 4 4 5 5 6 7 8 5 3 3 3 2 2 2 2 2 2 1 1 2 2 2 3 6 6 9 10 10 10 12 13 13 12
10 10 9 8 7 6 4 3 3 2 2 3 4 5 6 6 7 5 3 3 3 3 2 2 2 2 2 2 1 0 1 2 3 4 6 7 9 10 11 10 10 11 13
9 9 9 8 7 5 4 3 3 2 2 2 3 5 6 6 6 5 3 3 3 3 3 3 2 2 1 2 2 1 2 2 3 4 4 4 6 8 10 10 10 10 9
11 10 10 9 8 7 5 4 3 3 2 3 2 4 6 6 6 5 4 4 4 3 3 3 3 2 1 2 3 1 2 3 3 2 2 4 4 4 6 9 10 10 9
12 12 11 9 9 7 6 4 3 2 1 1 1 2 3 6 6 5 5 4 4 4 4 4 4 4 2 1 2 3 2 3 2 3 2 2 3 3 4 5 8 10 10
13 12 10 10 9 8 7 6 6 4 3 3 2 2 2 4 4 5 5 4 4 4 4 4 4 3 4 2 1 1 3 3 2 2 3 2 2 4 4 5 5 8 9
14 13 11 10 9 8 7 7 6 4 3 2 2 3 3 2 3 4 5 4 3 3 4 4 3 4 3 3 2 1 1 1 2 2 2 3 2 3 4 4 4 5 8
13 12 11 11 9 9 8 8 7 6 5 4 4 3 3 2 2 3 4 3 3 4 4 4 4 4 4 3 3 2 2 2 2 2 3 3 3 3 3 3 4 4 6
Wind_Direction
65 93 95 90 90 91 91 89 89 90 91 91 91 94 96 98 102 111 118 119 121 125 128 128 128 128 127 127 127 129 129 127 126 126 127 127 125 125 125 125 122 121 123
146 121 108 102 99 97 95 93 92 91 93 93 94 96 99 100 102 110 115 116 118 122 126 126 126 126 125 126 128 129 128 127 127 126 125 125 125 126 127 127 127 128 128
126 124 120 112 106 102 98 96 95 93 94 96 96 98 101 103 105 111 113 116 118 121 122 124 125 126 126 128 130 131 131 129 128 125 122 119 124 127 130 131 131 132 131
120 127 127 119 112 107 103 100 98 97 96 97 98 100 103 106 107 110 114 118 120 121 123 124 127 129 130 130 131 131 132 133 131 128 122 124 127 129 131 133 135 136 134
103 119 127 121 115 111 106 102 101 100 99 98 100 102 106 108 109 110 114 117 119 121 123 124 127 129 130 132 132 132 132 131 132 129 126 125 127 133 135 136 138 138 138
104 116 124 120 117 113 109 106 105 104 102 102 103 104 108 110 111 112 114 117 119 121 123 125 127 129 130 132 134 133 133 132 125 126 128 130 135 140 140 142 142 143 143
118 117 124 123 121 116 111 109 108 108 106 106 107 107 109 112 113 116 118 120 121 123 124 126 129 130 131 134 136 136 137 137 127 129 134 136 144 147 147 148 147 146 147
130 126 128 127 125 121 116 113 113 112 111 110 110 111 110 110 112 119 121 124 125 125 126 128 131 133 135 136 137 136 138 142 137 138 141 146 152 153 153 154 151 150 153
130 126 127 132 130 126 122 119 119 117 115 116 116 116 115 115 116 121 124 127 129 129 130 132 134 135 135 134 134 135 139 141 135 140 149 153 155 153 154 154 155 158 160
131 131 130 133 131 131 131 127 125 124 123 124 124 124 123 123 123 124 130 135 136 135 136 138 141 141 142 143 138 135 139 139 140 145 149 157 159 161 163 165 165 162 164
135 143 138 138 139 141 142 138 135 132 132 132 129 128 126 126 129 133 141 147 147 146 145 147 148 152 150 143 137 137 139 141 143 146 154 164 167 168 171 171 169 167 168
152 157 156 152 151 156 153 147 151 149 150 147 146 140 138 143 147 144 147 153 152 151 152 158 165 166 157 150 147 143 143 145 148 154 166 169 171 173 175 175 176 177 178
162 162 169 166 163 162 151 154 167 166 164 168 165 159 152 146 149 143 147 155 155 156 162 171 176 178 173 173 156 150 154 154 160 165 169 171 176 179 178 180 182 185 187
150 154 162 162 156 157 152 160 167 160 163 165 167 162 151 142 145 151 158 171 174 176 179 185 179 180 184 185 171 155 157 156 162 163 175 181 185 183 183 187 190 190 192
147 149 150 148 148 145 142 161 158 162 164 163 161 163 155 145 142 148 162 167 173 174 170 168 168 163 168 169 166 154 151 158 167 170 181 185 186 187 188 193 196 196 196
153 152 147 141 145 142 142 150 155 159 155 149 150 153 150 148 149 147 151 157 175 183 178 167 159 161 165 154 155 157 159 168 174 177 182 189 194 194 196 199 201 200 200
157 154 150 145 138 136 139 145 149 157 152 153 156 153 151 150 150 148 147 154 171 172 157 139 129 131 140 140 143 168 168 173 179 183 184 189 195 201 204 204 205 206 208
150 150 154 149 140 138 136 133 139 156 157 162 160 155 156 157 157 151 149 161 159 135 130 126 125 117 127 139 163 189 183 178 182 182 186 192 195 200 206 208 210 211 215
153 151 151 143 145 145 139 132 133 143 154 164 161 160 164 162 161 157 160 164 152 128 132 153 130 135 144 160 189 203 202 200 196 189 193 201 201 201 205 212 215 216 218
157 153 151 149 154 149 133 115 107 119 148 159 162 169 171 167 164 161 165 168 159 143 148 145 141 131 159 187 189 238 256 232 212 203 203 201 203 205 206 211 212 219 223
154 154 152 153 160 148 138 137 136 162 173 168 174 175 174 171 167 162 160 158 161 165 176 168 148 136 159 146 100 5 328 286 237 223 210 203 206 204 200 204 208 211 221
165 164 160 163 165 163 161 158 159 163 173 178 183 176 180 177 172 171 166 173 178 170 171 166 151 146 191 160 142 113 350 335 312 244 223 212 213 196 201 207 205 207 213
171 172 170 169 168 169 161 146 140 111 82 96 160 189 191 181 178 177 177 181 182 178 187 191 172 161 186 225 171 153 161 234 294 314 271 227 205 205 211 203 207 208 211
179 174 168 169 170 172 164 157 156 162 173 192 187 186 188 185 183 183 177 178 177 173 185 199 182 172 165 196 246 216 192 180 179 297 315 289 233 214 213 212 207 212 214
178 174 173 170 173 174 172 171 169 176 182 180 164 161 176 189 190 184 178 176 182 184 189 189 181 179 174 179 198 216 210 204 167 176 267 294 296 246 222 210 205 210 212
176 175 175 174 180 178 176 177 178 181 181 174 177 179 190 195 203 201 190 188 195 192 193 190 186 183 188 187 195 191 186 195 210 190 226 254 265 267 238 220 215 212 212
Height
1505 1503 1502 1499 1497 1495 1495 1495 1495 1495 1495 1495 1495 1495 1494 1494 1494 1495 1496 1498 1500 1502 1505 1507 1510 1513 1515 1518 1521 1524 1527 1530 1532 1534 1536 1538 1539 1541 1542 1544 1545 1546 1547
1505 1504 1502 1501 1500 1499 1499 1498 1498 1498 1497 1497 1497 1497 1497 1497 1497 1498 1500 1501 1503 1505 1508 1510 1513 1516 1518 1521 1524 1527 1530 1532 1534 1537 1538 1540 1541 1543 1544 1545 1546 1547 1548
1504 1503 1502 1502 1502 1502 1501 1501 1500 1500 1499 1499 1499 1499 1499 1500 1500 1501 1502 1504 1506 1508 1510 1513 1516 1519 1521 1524 1527 1530 1532 1535 1537 1539 1540 1541 1543 1544 1545 1547 1547 1548 1549
1501 1499 1500 1502 1503 1503 1503 1503 1502 1501 1501 1501 1501 1501 1501 1502 1503 1504 1505 1507 1509 1511 1514 1516 1519 1522 1525 1527 1530 1533 1535 1537 1539 1540 1542 1543 1545 1546 1547 1548 1549 1550 1551
1500 1498 1499 1502 1505 1505 1505 1505 1504 1504 1503 1503 1503 1503 1503 1504 1506 1507 1509 1510 1512 1515 1517 1520 1522 1525 1528 1530 1533 1535 1537 1539 1541 1542 1544 1545 1546 1547 1548 1549 1550 1551 1552
1503 1501 1503 1505 1507 1507 1507 1507 1507 1506 1505 1505 1505 1505 1506 1507 1508 1510 1511 1514 1516 1518 1521 1523 1525 1528 1530 1533 1536 1538 1539 1541 1543 1544 1545 1546 1547 1549 1550 1550 1551 1552 1552
1507 1507 1508 1509 1509 1510 1509 1509 1509 1509 1508 1508 1508 1508 1509 1510 1511 1513 1515 1517 1520 1522 1524 1526 1529 1531 1533 1535 1538 1539 1541 1543 1544 1545 1546 1547 1548 1550 1550 1551 1552 1552 1553
1511 1511 1512 1512 1512 1512 1512 1512 1512 1512 1511 1511 1512 1512 1513 1515 1516 1517 1519 1521 1523 1525 1527 1529 1532 1534 1536 1538 1540 1541 1543 1544 1545 1547 1547 1548 1549 1550 1551 1552 1552 1553 1553
1514 1514 1514 1515 1515 1515 1515 1515 1515 1515 1515 1515 1516 1517 1518 1519 1520 1521 1523 1524 1526 1528 1530 1532 1534 1536 1538 1540 1542 1543 1544 1545 1546 1547 1548 1549 1550 1551 1551 1552 1552 1553 1553
1516 1517 1517 1517 1517 1517 1517 1518 1518 1518 1519 1519 1520 1521 1521 1522 1523 1525 1526 1528 1529 1531 1533 1535 1537 1539 1541 1542 1544 1544 1545 1546 1547 1548 1549 1550 1550 1551 1552 1552 1553 1553 1554
1518 1519 1519 1519 1520 1520 1520 1521 1521 1521 1522 1522 1523 1524 1525 1525 1526 1527 1529 1530 1532 1534 1536 1537 1539 1540 1542 1543 1545 1546 1547 1548 1549 1549 1550 1551 1551 1552 1552 1553 1553 1554 1554
1519 1520 1521 1521 1521 1522 1522 1523 1523 1524 1524 1525 1526 1526 1527 1528 1529 1530 1531 1533 1535 1536 1538 1540 1541 1542 1544 1545 1546 1547 1547 1549 1550 1550 1551 1551 1552 1552 1552 1553 1553 1554 1554
1520 1521 1522 1522 1523 1523 1524 1525 1525 1526 1527 1527 1528 1529 1530 1531 1532 1533 1534 1535 1537 1538 1540 1541 1542 1544 1545 1546 1547 1548 1548 1549 1550 1551 1551 1551 1552 1552 1553 1553 1553 1554 1554
1521 1522 1523 1523 1524 1525 1526 1526 1527 1527 1528 1529 1530 1531 1532 1532 1533 1534 1536 1537 1538 1540 1541 1542 1543 1544 1545 1547 1548 1548 1549 1550 1550 1551 1551 1552 1552 1552 1553 1553 1553 1553 1554
1521 1522 1523 1524 1525 1526 1526 1527 1528 1529 1530 1530 1531 1532 1533 1534 1534 1535 1537 1538 1539 1541 1542 1543 1544 1545 1546 1547 1548 1548 1549 1550 1550 1551 1551 1552 1552 1552 1552 1552 1552 1552 1553
1521 1522 1524 1525 1526 1526 1527 1528 1529 1530 1531 1531 1532 1533 1534 1534 1535 1536 1538 1539 1540 1541 1542 1543 1545 1545 1547 1547 1548 1549 1549 1550 1550 1551 1551 1551 1552 1552 1552 1552 1552 1552 1552
1520 1522 1524 1525 1526 1527 1527 1528 1529 1530 1531 1532 1533 1534 1534 1535 1536 1537 1539 1540 1541 1542 1543 1544 1545 1546 1547 1548 1548 1549 1549 1550 1550 1550 1550 1550 1551 1551 1551 1551 1551 1551 1551
1520 1521 1523 1525 1526 1527 1528 1529 1530 1531 1532 1532 1533 1534 1535 1536 1537 1538 1539 1540 1541 1542 1543 1544 1545 1546 1546 1547 1548 1549 1549 1549 1549 1550 1550 1550 1550 1550 1550 1550 1549 1549 1549
1519 1521 1523 1524 1526 1527 1528 1529 1530 1531 1532 1533 1534 1535 1535 1536 1537 1538 1539 1540 1541 1542 1543 1544 1545 1545 1546 1547 1548 1548 1548 1548 1548 1548 1548 1549 1549 1549 1549 1548 1548 1548 1548
1519 1520 1522 1524 1525 1526 1528 1529 1530 1531 1532 1533 1534 1534 1535 1536 1537 1538 1539 1540 1541 1542 1543 1543 1544 1545 1546 1546 1547 1547 1547 1547 1547 1547 1547 1547 1547 1547 1547 1547 1547 1546 1546
1518 1520 1521 1523 1524 1526 1527 1528 1529 1530 1531 1532 1533 1534 1535 1536 1537 1538 1539 1540 1541 1541 1542 1543 1543 1544 1545 1545 1546 1546 1546 1546 1546 1546 1546 1546 1546 1546 1545 1545 1545 1545 1544
1516 1518 1520 1522 1523 1525 1526 1528 1529 1530 1531 1532 1533 1533 1534 1535 1536 1537 1538 1539 1540 1541 1541 1542 1543 1543 1544 1545 1545 1545 1545 1546 1544 1545 1544 1544 1544 1544 1544 1543 1543 1543 1543
1515 1517 1518 1520 1522 1524 1525 1527 1528 1529 1530 1531 1532 1533 1534 1535 1536 1537 1538 1539 1539 1540 1541 1541 1542 1543 1543 1544 1544 1545 1544 1543 1543 1543 1543 1543 1543 1543 1542 1542 1542 1541 1541
1512 1515 1517 1519 1521 1523 1524 1526 1527 1528 1528 1530 1531 1532 1533 1534 1535 1536 1537 1538 1539 1540 1540 1541 1541 1542 1542 1543 1543 1543 1543 1543 1542 1542 1542 1541 1541 1541 1540 1540 1540 1539 1539
1510 1513 1515 1518 1520 1522 1523 1525 1526 1527 1528 1529 1531 1532 1533 1534 1534 1535 1536 1537 1538 1539 1539 1540 1540 1541 1541 1542 1542 1542 1542 1542 1541 1540 1539 1540 1540 1539 1539 1539 1538 1537 1537
1508 1511 1514 1516 1518 1520 1522 1524 1525 1526 1527 1528 1530 1531 1532 1533 1533 1534 1535 1536 1537 1537 1538 1539 1539 1540 1540 1540 1540 1540 1540 1540 1539 1539 1538 1537 1537 1537 1537 1536 1536 1535 1534